Regional Weather Roundup
Issued by NWS

Home | Current Version | Previous Version | Graphics & Text | Print | Product List | Glossary Off
Versions: 1 2 3 4 5 6 7 8 9 10 11 12 13 14 15 16 17 18 19 20 21 22 23 24 25 26 27 28 29 30 31 32 33 34 35 36 37 38 39 40 41 42 43 44 45 46 47 48 49 50

000
ASUS43 KMPX 201101
RWRMN
WEATHER ROUNDUP FOR MINNESOTA
NATIONAL WEATHER SERVICE TWIN CITIES/CHANHASSEN MN
600 AM CDT WED AUG 20 2014


NOTE: "FAIR" INDICATES FEW OR NO CLOUDS BELOW 12,000 FEET WITH NO
SIGNIFICANT WEATHER AND/OR OBSTRUCTIONS TO VISIBILITY. N/A MEANS
CURRENT SKY AND/OR WEATHER CONDITIONS ARE NOT AVAILABLE.

MNZ060>063-068>070-201200-
   Twin Cities Metro

CITY           SKY/WX    TMP DP  RH WIND       PRES   REMARKS
TWIN CITIES    PTCLDY    66  64  93 NE6       29.81F
ST PAUL        CLEAR     65  63  93 E5        29.82F
CRYSTAL        CLEAR     63  61  93 CALM      29.81S FOG
BLAINE         CLEAR     61  61 100 NE5       29.83S
LAKEVILLE      FOG       61  61 100 CALM      29.82S VSB 1/4
EDEN PRAIRIE   CLEAR     65  63  93 NE5       29.81R
SOUTH ST PAUL  CLEAR     64  63  95 CALM      29.81F
LAKE ELMO      FOG       61  61 100 CALM      29.84S VSB 1/4
$$
MNZ001>005-007-008-013>017-022>024-027-028-201200-
   Northwest Minnesota

CITY           SKY/WX    TMP DP  RH WIND       PRES   REMARKS
BEMIDJI        CLEAR     57  56  99 CALM      29.85R
HALLOCK        PTCLDY    63  61  94 SE7       29.78R
ROSEAU         CLEAR     63  57  82 S5        29.82R
WARROAD        CLEAR     63  57  82 CALM      29.83R
THIEF RVR FALL CLEAR     61  57  88 SE6       29.81R
CROOKSTON      CLEAR     61  61 100 SE6       29.79S
FOSSTON        CLEAR     59  55  88 CALM      29.82S
DETROIT LAKES  PTCLDY    64  63  94 SE6       29.82F
MOORHEAD       PTCLDY    64  64 100 SE3       29.78F
PARK RAPIDS    MOCLDY    61  60  97 E5        29.83F
MAHNOMEN       FAIR      61  60  96 SE6       29.81S
$$
MNZ006-009>011-018-025>026-201200-
   North Central Minnesota

CITY           SKY/WX    TMP DP  RH WIND       PRES   REMARKS
BAUDETTE       CLEAR     57  56  96 VRB3      29.84R
FLAG ISLAND    CLEAR     68  63  83 S9        29.82R
INTL FALLS     FOG       52  52 100 CALM      29.85R VSB 1/4
WASKISH        CLOUDY    57  57 100 CALM      29.85R
BIG FORK       FOG       48  48 100 CALM      29.87R VSB 1/2
LONGVILLE      MOCLDY    54  54 100 CALM      29.85S FOG
GRAND RAPIDS   CLOUDY    54  52  94 CALM      29.86S
CRANE LAKE     FOG       52  52 100 CALM      29.87S VSB<1/4
ORR            FOG       48  46  93 CALM      29.84R VSB 3/4
COOK           FOG       50  50 100 CALM      29.86S VSB 1/4
WALKER         FAIR      58  57  98 CALM      29.85R
$$
MNZ012-019>021-037-201200-
   Northeast Minnesota

CITY           SKY/WX    TMP DP  RH WIND       PRES   REMARKS
DULUTH         CLOUDY    60  58  92 CALM      29.86R
ELY            CLOUDY    61  57  88 CALM      29.86R
HIBBING        FOG       52  50  93 CALM      29.86R VSB 1/4
EVELETH        CLOUDY    57  55  94 CALM      29.87R
DULUTH HARBOR  CLOUDY    63  59  88 CALM      29.86R
TWO HARBORS    CLOUDY    57  54  88 CALM      29.84R
SILVER BAY     CLEAR     55  55 100 CALM      29.83S
GRAND MARAIS     N/A     63  59  87 CALM      29.82S
G MARAIS ARPRT CLOUDY    57  54  88 N6        29.86S
$$
MNZ029>031-032-039>041-046>048-054>057-064-201200-
   West Central Minnesota

CITY           SKY/WX    TMP DP  RH WIND       PRES   REMARKS
FERGUS FALLS   PTCLDY    66  63  88 E5        29.79F
WHEATON        PTCLDY    59  57  94 SE7       29.80R
MORRIS         PTCLDY    63  61  94 SE6       29.79R FOG
ALEXANDRIA     CLEAR     64  62  93 E8        29.82F
ELBOW LAKE     FAIR      65  62  91 E7        29.79S
WADENA         FOG       57  57 100 CALM      29.82F VSB 1/2
GLENWOOD       PTCLDY    61  59  94 E6        29.82S FOG
APPLETON       MOCLDY    63  61  94 E3        29.79S FOG
BENSON         MOCLDY    63  61  94 CALM      29.80R
ORTONVILLE     MOCLDY    64  63  94 E5        29.79R
MADISON        CLOUDY    64  63  94 E5        29.78S FOG
WILLMAR        FAIR      61  57  88 CALM      29.82R
$$
MNZ033>034-036-042>043-049>051-058-059-201200-
   Central Minnesota

CITY           SKY/WX    TMP DP  RH WIND       PRES   REMARKS
ST CLOUD       FOG       63  62  97 E5        29.83S VSB 1/2
SAUK CENTRE    FAIR      62  61  98 E7        29.82F
PAYNESVILLE    CLEAR     57  57 100 CALM      29.83R FOG
AITKIN         HAZE      57  52  82 CALM      29.85R VSB 1/2
PINE RIVER     FOG       55  55 100 CALM      29.89R VSB 1/2
BRAINERD       FOG       58  57  97 CALM      29.84F VSB 1/4
STAPLES        FOG       59  59 100 E3        29.82F VSB 1
LONG PRAIRIE   FOG       59  59 100 CALM      29.83S VSB 1/4
LITTLE FALLS   CLEAR     59  59 100 CALM      29.83F
LITCHFIELD     PTCLDY    64  64 100 CALM      29.82S
BUFFALO        CLEAR     63  60  92 NE5       29.82F
MAPLE LAKE     PTCLDY    60  60  99 CALM      29.83S FOG
$$
MNZ037-044-045-052-053-201200-
   East Central Minnesota

CITY           SKY/WX    TMP DP  RH WIND       PRES   REMARKS
PRINCETON      CLOUDY    64  63  94 E1        29.83F VSB 3/4
MORA           CLEAR     55  54  94 CALM      29.86S
CAMBRIDGE      HAZE      64  55  72 CALM      29.82F VSB 1
RUSH CITY      MOCLDY    59  58  96 NE3       29.85S FOG
MOOSE LAKE     FOG       55  54  94 CALM      29.85R VSB 1/2
HINCKLEY       FOG       55  55 100 CALM      29.86R VSB 1/2
CLOQUET        FOG       61  57  88 CALM      29.87R VSB 1/4
MCGREGOR       CLOUDY    54  54 100 CALM      29.87S VSB 1/4
$$
MNZ071>073-080-081-089-090-097-098-201200-
   Southwest Minnesota

CITY           SKY/WX    TMP DP  RH WIND       PRES   REMARKS
MONTEVIDEO     CLOUDY    63  63 100 CALM      29.80S
GRANITE FALLS  CLOUDY    63  63  99 E5        29.81R
CANBY          CLOUDY    63  62  96 CALM      29.80S FOG
MARSHALL       CLOUDY    64  59  82 CALM      29.79R
REDWOOD FALLS  MOCLDY    63  63 100 SE3       29.80S FOG
OLIVIA         MOCLDY    61  59  94 E3        29.80R FOG
PIPESTONE      CLOUDY    64  63  94 CALM      29.83R
WINDOM         MOCLDY    63  61  94 CALM      29.83R
WORTHINGTON    CLOUDY    63   7  11 CALM      29.84R
JACKSON        MOCLDY    63  59  88 CALM      29.84R
TRACY          CLOUDY    67  63  86 CALM      29.81R
SLAYTON        CLOUDY    62  62  99 CALM      29.85R
$$
MNZ065>067-074>077-082>085-091>093-201200-
   South Central Minnesota

CITY           SKY/WX    TMP DP  RH WIND       PRES   REMARKS
MANKATO        PTCLDY    64  61  88 CALM      29.81S
NEW ULM        PTCLDY    64  64 100 CALM      29.81R
ST JAMES       PTCLDY    63  61  94 CALM      29.82R FOG
FAIRMONT       PTCLDY    61  39  44 SW3       29.83R
GLENCOE        MOCLDY    62  59  91 CALM      29.80F FOG
FARIBAULT      MOCLDY    61  55  82 CALM      29.82S HAZE
OWATONNA       FOG       61  57  88 CALM      29.82F VSB 3/4
WASECA         CLEAR     55  52  88 CALM      29.83S FOG
ALBERT LEA       N/A     61  61 100 CALM      29.81F FOG
$$
MNZ078>079-086>088-094>096-201200-
   Southeast Minnesota

CITY           SKY/WX    TMP DP  RH WIND       PRES   REMARKS
ROCHESTER      FOG       61  59  93 CALM      29.84S VSB 1/4
RED WING       CLEAR     61  59  94 CALM      29.81F
STANTON        FOG       60  58  94 CALM      29.80F VSB 3/4
DODGE CENTER   FOG       59  57  94 CALM      29.82F VSB 1/4
WINONA         FOG       63  61  94 CALM      29.82S VSB<1/4
AUSTIN         PTCLDY    59  57  94 CALM      29.82F FOG
PRESTON        FOG       59  59 100 CALM      29.83F VSB 3/4
$$
ABBREVIATIONS USED IN REMARKS
   TC - TEMPERATURES IN CELSIUS
  WCI - WIND CHILL INDEX
   HX - HEAT INDEX
  VSB - VISIBILITY
$$


USA.gov is the U.S. government's official web portal to all federal, state and local government web resources and services.